Agadir Al Massira, Morocco

6:14 PM WEST on September 21, 2017 (GMT +0100)
Agadir Al Massira

Weather History for GMAD - September, 2012

Change the Weather History Date:

Wednesday, September 12, 2012

  Actual Average Record
Temperature  
Mean Temperature 74 °F -  
Max Temperature 84 °F - - ()
Min Temperature 63 °F - - ()
Cooling Degree Days 8    
Growing Degree Days 24 (Base 50)    
Moisture  
Dew Point 62 °F    
Average Humidity 70    
Maximum Humidity 83    
Minimum Humidity 42    
Precipitation  
Precipitation 0.00 in - - ()
Sea Level Pressure  
Sea Level Pressure 30.04 in    
Wind  
Wind Speed 5 mph ()    
Max Wind Speed 18 mph    
Max Gust Speed -    
Visibility 5.1 miles    
Events      
T = Trace of Precipitation, MM = Missing Value Source: Averaged Metar Reports

Daily Weather History Graph

Daily Weather History Graph

Search for Another Location

Airport or City:

Trip Planner

Search our weather history database for the weather conditions in past years. The results will help you decide how hot, cold, wet, or windy it might be!

Date:

Astronomy

Sep. 12, 2012 Rise Set
Actual Time 7:20 AM WEST 7:46 PM WEST
Civil Twilight 6:56 AM WEST 8:10 PM WEST
Nautical Twilight 6:28 AM WEST 8:38 PM WEST
Astronomical Twilight 5:59 AM WEST 9:07 PM WEST
Moon 3:37 AM WEST (9/12) 5:15 PM WEST (9/12)
Length of Visible Light 13h 14m
Length of Day
12h 25m
Waning Crescent, 15% of the Moon is Illuminated
Sep 12
Waning Crescent
Sep 16
New
Sep 22
First Quarter
Sep 30
Full
Oct 8
Last Quarter

Hourly Weather History & Observations

Time (WEST) Temp. Heat Index Dew Point Humidity Pressure Visibility Wind Dir Wind Speed Gust Speed Precip Events Conditions
12:00 AM 68.0 °F - 62.6 °F 83% 30.04 in 6.2 mi Calm Calm - N/A   Scattered Clouds
1:00 AM 67 °F - 62 °F 78% 30.04 in 6 mi East 3.5 mph - -   Partly Cloudy
1:00 AM 68.0 °F - 62.6 °F 83% 30.04 in 6.2 mi East 3.5 mph - N/A   Scattered Clouds
2:00 AM 66.2 °F - 60.8 °F 83% 30.04 in 6.2 mi East 3.5 mph - N/A   Scattered Clouds
3:00 AM 66.2 °F - 60.8 °F 83% 30.01 in 6.2 mi East 3.5 mph - N/A   Scattered Clouds
4:00 AM 66 °F - 61 °F 80% 30.01 in 5 mi East 3.5 mph - -   Partly Cloudy
4:00 AM 66.2 °F - 60.8 °F 83% 30.01 in 5.0 mi East 3.5 mph - N/A   Scattered Clouds
6:00 AM 64.4 °F - 59.0 °F 83% 30.01 in 5.0 mi ENE 3.5 mph - N/A   Scattered Clouds
7:00 AM 65 °F - 61 °F 81% 30.03 in 5 mi East 3.5 mph - -   Mostly Cloudy
7:00 AM 66.2 °F - 60.8 °F 83% 30.04 in 5.0 mi East 3.5 mph - N/A   Mostly Cloudy
8:00 AM 66.2 °F - 60.8 °F 83% 30.04 in 5.0 mi NE 2.3 mph - N/A   Mostly Cloudy
9:00 AM 69.8 °F - 62.6 °F 78% 30.06 in 6.2 mi ENE 3.5 mph - N/A   Mostly Cloudy
10:00 AM 72 °F - 62 °F 64% 30.08 in 6 mi ENE 4.6 mph - -  
10:00 AM 71.6 °F - 62.6 °F 73% 30.06 in 6.2 mi ENE 4.6 mph - N/A   Unknown
11:00 AM 73.4 °F - 62.6 °F 69% 30.06 in 5.0 mi East 4.6 mph - N/A   Mostly Cloudy
12:00 PM 78.8 °F - 62.6 °F 57% 30.06 in 5.0 mi Variable 1.2 mph - N/A   Scattered Clouds
1:00 PM 81 °F - 62 °F 42% 30.05 in 5 mi South 3.5 mph - -   Partly Cloudy
1:00 PM 80.6 °F 81.8 °F 62.6 °F 54% 30.06 in 5.0 mi South 3.5 mph - N/A   Scattered Clouds
2:00 PM 84.2 °F 85.0 °F 62.6 °F 48% 30.04 in 5.0 mi Variable 3.5 mph - N/A   Partly Cloudy
3:00 PM 84.2 °F 85.0 °F 62.6 °F 48% 30.01 in 5.0 mi West 16.1 mph - N/A   Partly Cloudy
4:00 PM 82 °F - 63 °F 42% 30.00 in 5 mi West 17.3 mph - -   Scattered Clouds
4:00 PM 82.4 °F 83.4 °F 62.6 °F 51% 30.01 in 5.0 mi West 17.3 mph - N/A   Partly Cloudy
5:00 PM 80.6 °F 81.8 °F 62.6 °F 54% 30.01 in 5.0 mi West 18.4 mph - N/A   Partly Cloudy
6:00 PM 78.8 °F - 62.6 °F 57% 30.01 in 5.0 mi West 18.4 mph - N/A   Partly Cloudy
7:00 PM 75.2 °F - 62.6 °F 65% 30.01 in 5.0 mi West 15.0 mph - N/A   Partly Cloudy
8:00 PM 71.6 °F - 64.4 °F 78% 30.04 in 5.0 mi WSW 8.1 mph - N/A   Partly Cloudy
9:00 PM 71.6 °F - 66.2 °F 83% 30.04 in 3.7 mi SSW 6.9 mph - N/A   Scattered Clouds
10:00 PM 71 °F - 65 °F 74% 30.06 in 4 mi South 5.8 mph - -   Mostly Cloudy
10:00 PM 71.6 °F - 64.4 °F 78% 30.06 in 3.7 mi South 5.8 mph - N/A   Scattered Clouds
11:00 PM 71.6 °F - 64.4 °F 78% 30.06 in 3.7 mi SE 5.8 mph - N/A   Scattered Clouds